This demonstration page uses our WeatherBlox Daily Observations layout. Learn more.

Left ArrowRight Arrow

39.92423, -83.80882

Hourly Observations for May 2, 2018

Temp ( °F °C ) Dew Point ( °F °C ) Humidity (%) Winds ( mph kmh ) Pressure ( in mb ) Visibility ( mi km ) Precip ( " mm )
12:56 am 00:56 Clear 63 17.2 43 6.1 48 48 SW 9 15 30.11 1020 10 16.0934 0 0
1:56 am 01:56 Clear 62 16.7 43 6.1 50 50 SW 7 11 30.11 1020 10 16.0934 0 0
2:56 am 02:56 Clear 62 16.7 43 6.1 50 50 SSW 6 9 30.09 1019 10 16.0934 0 0
3:56 am 03:56 Clear 61 16.1 43 6.1 52 52 S 8 13 30.09 1019 10 16.0934 0 0
4:56 am 04:56 Clear 63 17.2 45 7.2 52 52 SSW 10 17 30.08 1019 10 16.0934 0 0
5:56 am 05:56 Clear 62 16.7 46 7.8 56 56 SSW 7 11 30.1 1019 10 16.0934 0 0
6:56 am 06:56 Sunny 63 17.2 47 8.3 56 56 SSW 13 20 30.11 1020 10 16.0934 0 0
7:56 am 07:56 Sunny 64 17.8 49 9.4 58 58 SSW 12 19 30.14 1021 10 16.0934 0 0
8:56 am 08:56 Sunny 68 20 52 11.1 57 57 SW 14 22 30.14 1021 10 16.0934 0 0
9:56 am 09:56 Sunny 71 21.7 54 12.2 55 55 SW 15 24 30.13 1020 10 16.0934 0 0
10:56 am 10:56 Sunny 75 23.9 57 13.9 54 54 SW 16 26 30.12 1020 10 16.0934 0 0
11:56 am 11:56 Sunny 79 26.1 59 15 50 50 SW 23 37 30.11 1020 10 16.0934 0 0
12:56 pm 12:56 Sunny 79 26.1 59 15 50 50 WSW 21 33 30.11 1020 10 16.0934 0 0
1:56 pm 13:56 Sunny 81 27.2 60 15.6 49 49 SW 18 30 30.08 1019 10 16.0934 0 0
2:56 pm 14:56 Sunny 82 27.8 59 15 46 46 SW 23 37 30.06 1018 10 16.0934 0 0
3:56 pm 15:56 Sunny 83 28.3 59 15 44 44 SSW 20 31 30.04 1017 10 16.0934 0 0
4:56 pm 16:56 Sunny 82 27.8 59 15 46 46 SW 18 30 30.04 1017 10 16.0934 0 0
5:56 pm 17:56 Sunny 81 27.2 60 15.6 49 49 WSW 22 35 30.04 1017 10 16.0934 0 0
6:56 pm 18:56 Sunny 81 27.2 59 15 47 47 SW 12 19 30.04 1017 10 16.0934 0 0
7:56 pm 19:56 Sunny 79 26.1 59 15 50 50 SW 17 28 30.02 1017 10 16.0934 0 0
8:56 pm 20:56 Clear 76 24.4 59 15 56 56 SSW 8 13 30.01 1016 10 16.0934 0 0
9:56 pm 21:56 Clear 74 23.3 59 15 60 60 SSW 8 13 30.02 1017 10 16.0934 0 0
10:56 pm 22:56 Clear 72 22.2 59 15 64 64 SSW 8 13 30.04 1017 10 16.0934 0 0
11:56 pm 23:56 Clear 71 21.7 59 15 66 66 SSW 8 13 30.04 1017 10 16.0934 0 0

Powered by AerisWeather